KC3QLX Weather Reports


time (UTC)temp
F
wind
direction
speed
knots
gust
knots
rain 1hr
in
rain 24hr
in
rain mn
in
humidity
%
barometer
mb
20260507000351 58 284 2.6 2.6 0.00 0.60 0.60 99 1008.1
20260506235848 60 342 2.6 2.6 0.00 0.60 0.60 99 1007.9
20260506235345 61 280 1.7 1.7 0.00 0.60 0.60 99 1007.8
20260506234840 61 293 0.0 0.0 0.00 0.60 0.60 99 1007.7
20260506234339 61 237 0.0 0.0 0.00 0.60 0.60 99 1007.6
20260506233836 61 196 0.0 0.0 0.00 0.60 0.60 99 1007.5
20260506233332 61 195 0.0 0.0 0.00 0.60 0.60 99 1007.6
20260506232829 61 192 0.0 0.0 0.00 0.60 0.60 99 1007.5
20260506232325 61 188 0.0 0.0 0.00 0.60 0.60 99 1007.5
20260506231821 61 176 0.0 0.0 0.00 0.60 0.60 99 1007.6
20260506231319 61 170 0.0 0.0 0.00 0.60 0.60 99 1007.3
20260506230816 61 174 0.0 0.0 0.00 0.60 0.60 99 1007.1
20260506230313 62 175 0.0 0.0 0.00 0.60 0.60 99 1007.2
20260506225809 62 175 0.0 0.0 0.00 0.60 0.60 99 1007.0
20260506225307 62 174 0.0 0.0 0.00 0.60 0.60 99 1007.1
20260506224803 62 146 0.0 0.0 0.00 0.60 0.60 99 1007.2
20260506224300 62 156 0.0 0.0 0.00 0.60 0.60 99 1007.1
20260506223756 62 157 0.0 0.0 0.00 0.60 0.60 99 1006.9
20260506223252 62 186 0.0 0.0 0.00 0.60 0.60 99 1006.9
20260506222749 62 217 0.0 0.0 0.00 0.60 0.60 99 1007.0
20260506222244 62 81 0.0 0.0 0.05 0.60 0.60 99 1007.1
20260506221737 62 183 0.0 0.0 0.12 0.60 0.60 98 1007.1
20260506221235 62 222 0.0 0.0 0.12 0.59 0.59 98 1007.0
20260506220731 62 233 0.9 0.9 0.12 0.58 0.58 97 1006.8
20260506220226 63 216 0.0 0.0 0.07 0.57 0.57 97 1006.8
20260506215723 63 207 0.9 1.7 0.00 0.56 0.56 96 1006.7
20260506215219 63 265 0.0 0.9 0.00 0.56 0.56 96 1006.6
20260506214716 63 244 0.0 0.0 0.00 0.56 0.56 96 1006.6
20260506214213 63 7 1.7 2.6 0.00 0.56 0.56 96 1006.6
20260506213711 63 6 0.0 0.0 0.00 0.56 0.56 95 1006.5
20260506213208 64 265 0.0 0.0 0.00 0.56 0.56 96 1006.4
20260506212705 64 19 0.0 0.0 0.00 0.56 0.56 96 1006.3
20260506212201 63 261 0.9 1.7 0.00 0.56 0.56 96 1006.4
20260506211656 63 338 0.9 0.9 0.00 0.56 0.56 97 1006.3
20260506211153 63 301 0.9 0.9 0.00 0.56 0.56 98 1006.2
20260506210650 63 2 1.7 2.6 0.00 0.56 0.56 99 1006.2
20260506210146 63 265 1.7 2.6 0.00 0.56 0.56 99 1006.1
20260506205644 63 211 0.9 0.9 0.00 0.56 0.56 99 1006.2
20260506205138 62 23 1.7 2.6 0.00 0.56 0.56 99 1006.4
20260506204637 62 243 0.0 0.9 0.00 0.56 0.56 99 1006.2
20260506204133 61 15 0.9 0.9 0.00 0.56 0.56 99 1006.1
20260506203632 61 305 3.5 5.2 0.00 0.56 0.56 99 1006.2
20260506203128 61 235 1.7 1.7 0.00 0.56 0.56 99 1006.3
20260506202626 61 52 0.0 0.9 0.00 0.56 0.56 99 1006.2
20260506202122 61 305 1.7 1.7 0.00 0.56 0.56 99 1006.2
20260506201619 61 348 1.7 2.6 0.00 0.56 0.56 99 1006.3
20260506201116 61 219 2.6 2.6 0.00 0.56 0.56 99 1006.4
20260506200612 61 251 1.7 1.7 0.00 0.56 0.56 99 1006.3
20260506200109 61 238 0.9 1.7 0.00 0.56 0.56 99 1006.5
20260506195605 61 260 0.0 0.9 0.00 0.56 0.56 99 1006.2
20260506195102 61 210 0.9 1.7 0.00 0.56 0.56 99 1006.4
20260506194600 61 337 0.9 0.9 0.00 0.56 0.56 99 1006.4
20260506194056 61 185 0.0 0.9 0.00 0.56 0.56 99 1006.6
20260506193554 61 226 0.0 0.0 0.00 0.56 0.56 99 1006.6
20260506193051 61 217 0.9 0.9 0.00 0.56 0.56 99 1006.3
20260506192547 61 194 0.0 0.0 0.00 0.56 0.56 99 1006.5
20260506192043 61 67 0.0 0.9 0.00 0.56 0.56 99 1006.3
20260506191540 61 4 0.9 1.7 0.00 0.56 0.56 99 1006.4
20260506191036 61 325 0.9 0.9 0.00 0.56 0.56 99 1006.6
20260506190533 61 91 0.0 0.0 0.00 0.56 0.56 99 1006.7
20260506190030 61 94 0.0 0.9 0.00 0.56 0.56 99 1006.5
20260506185527 61 209 0.0 0.0 0.00 0.56 0.56 99 1006.6
20260506185024 60 91 0.9 0.9 0.00 0.56 0.56 99 1006.7
20260506184521 60 283 0.0 0.9 0.00 0.56 0.56 99 1006.7
20260506184019 60 335 0.0 0.0 0.00 0.56 0.56 99 1006.9
20260506183514 60 268 0.9 0.9 0.00 0.56 0.56 99 1006.8
20260506183011 60 348 0.9 1.7 0.00 0.56 0.56 99 1007.0
20260506182509 60 306 0.9 0.9 0.00 0.56 0.56 99 1007.1
20260506182005 60 109 1.7 1.7 0.00 0.56 0.56 99 1007.2
20260506181503 60 96 0.0 0.9 0.00 0.56 0.56 99 1007.3
20260506181000 60 267 0.0 0.0 0.07 0.56 0.56 99 1007.0
20260506180456 60 225 0.0 0.0 0.07 0.56 0.56 99 1007.2
20260506175953 60 240 0.0 0.0 0.05 0.55 0.55 99 1007.1
20260506175450 60 347 0.9 0.9 0.05 0.55 0.55 99 1007.0
20260506174946 60 214 0.9 0.9 0.12 0.55 0.55 99 1007.1
20260506174444 60 201 0.0 0.0 0.12 0.54 0.54 99 1007.3
20260506173941 60 29 0.0 0.0 0.12 0.53 0.53 99 1007.1
20260506173438 60 243 0.0 0.0 0.12 0.52 0.52 99 1006.9
20260506172935 60 236 1.7 1.7 0.12 0.51 0.51 99 1006.8
20260506172432 60 158 0.0 0.0 0.12 0.50 0.50 99 1007.1
20260506171928 60 334 2.6 2.6 0.17 0.49 0.49 99 1007.0
20260506171426 60 32 0.0 0.0 0.12 0.48 0.48 99 1007.2
20260506170924 60 12 0.9 1.7 0.19 0.47 0.47 99 1007.3
20260506170419 60 48 0.9 0.9 0.19 0.46 0.46 99 1007.3
20260506165913 60 227 0.0 0.9 0.17 0.44 0.44 99 1007.3
20260506165411 60 352 0.9 0.9 0.24 0.43 0.43 99 1007.3
20260506164907 60 197 0.9 0.9 0.19 0.41 0.41 99 1007.0
20260506164403 60 25 0.9 0.9 0.19 0.39 0.39 99 1007.2
20260506163856 60 343 0.0 0.0 0.17 0.38 0.38 99 1007.1
20260506163349 60 229 0.9 0.9 0.05 0.36 0.36 99 1007.2
20260506162844 59 301 0.0 0.9 0.00 0.35 0.35 99 1007.4
20260506162343 59 51 0.9 0.9 0.00 0.35 0.35 99 1007.5
20260506161835 59 244 0.0 0.0 0.00 0.35 0.35 99 1007.3
20260506161332 59 262 0.0 0.9 0.00 0.35 0.35 99 1007.6
20260506160830 59 84 0.9 0.9 0.00 0.35 0.35 99 1007.3
20260506160326 60 323 1.7 1.7 0.00 0.35 0.35 99 1007.5
20260506155825 59 222 0.0 0.0 0.07 0.35 0.35 99 1007.4
20260506155320 59 81 0.9 1.7 0.07 0.35 0.35 99 1007.4
20260506153433 60 350 1.7 1.7 0.19 0.32 0.32 99 1007.6
20260506152931 60 101 1.7 1.7 0.17 0.31 0.31 99 1007.2
20260506152427 60 44 0.9 0.9 0.17 0.29 0.29 99 1007.3
20260506151926 60 266 0.9 0.9 0.24 0.28 0.28 99 1007.8
20260506151423 60 288 2.6 5.2 0.31 0.26 0.26 98 1007.9
20260506150921 60 217 3.5 6.1 0.38 0.24 0.24 98 1008.1
20260506150416 60 324 1.7 1.7 0.24 0.21 0.21 98 1008.3
20260506145914 60 249 0.0 0.9 0.12 0.18 0.18 98 1008.3
20260506145409 60 196 0.0 0.0 0.19 0.17 0.17 98 1008.0
20260506144907 60 161 0.0 0.9 0.17 0.16 0.16 98 1007.8
20260506144403 60 135 1.7 2.6 0.12 0.14 0.14 97 1007.8
20260506143902 60 357 0.9 1.7 0.12 0.13 0.13 97 1007.6
20260506143358 60 282 0.9 1.7 0.12 0.12 0.12 97 1007.9
20260506142857 60 78 0.0 0.0 0.12 0.11 0.11 97 1007.6
20260506142355 60 224 1.7 1.7 0.12 0.10 0.10 97 1007.8
20260506141853 60 152 0.0 0.0 0.12 0.09 0.09 97 1007.9
20260506141350 60 30 0.0 0.0 0.05 0.08 0.08 97 1007.8
20260506140848 60 347 0.0 0.0 0.07 0.07 0.07 96 1008.1
20260506140345 60 261 0.0 0.0 0.14 0.07 0.07 96 1008.1
20260506135842 61 212 0.0 0.0 0.07 0.06 0.06 96 1008.1
20260506135338 60 203 0.0 0.0 0.00 0.05 0.05 96 1008.1
20260506134835 60 336 0.0 0.0 0.00 0.05 0.05 96 1008.0
20260506134331 60 339 0.9 0.9 0.05 0.05 0.05 95 1008.0
20260506133829 60 232 0.0 0.0 0.05 0.05 0.05 96 1007.7
20260506133325 60 108 0.0 0.0 0.00 0.04 0.04 96 1008.0
20260506132822 60 162 0.0 0.0 0.07 0.04 0.04 96 1008.1
20260506132319 61 162 0.0 0.9 0.12 0.04 0.04 95 1008.0
20260506131817 61 165 0.0 0.9 0.05 0.03 0.03 93 1008.2
20260506131313 61 180 0.0 0.9 0.00 0.02 0.02 92 1008.3
20260506130810 61 25 0.9 1.7 0.07 0.02 0.02 91 1008.2
20260506130307 61 330 1.7 1.7 0.07 0.02 0.02 90 1008.4
20260506125805 62 124 0.9 0.9 0.00 0.01 0.01 90 1008.4
20260506125305 62 167 1.7 1.7 0.00 0.01 0.01 89 1008.7
20260506124801 62 166 0.9 0.9 0.00 0.01 0.01 88 1008.5
20260506124258 62 197 1.7 1.7 0.00 0.01 0.01 89 1008.2
20260506123755 62 149 2.6 5.2 0.00 0.01 0.01 88 1008.4
20260506123254 62 142 0.9 0.9 0.00 0.01 0.01 88 1008.3
20260506122750 62 134 0.0 0.0 0.05 0.01 0.01 88 1008.3
20260506122247 63 182 1.7 1.7 0.05 0.01 0.01 86 1008.2
20260506121745 62 106 1.7 1.7 0.00 0.00 0.00 86 1008.3
20260506121242 62 238 0.9 0.9 0.00 0.00 0.00 86 1008.3
20260506120739 63 99 0.9 0.9 0.00 0.00 0.00 85 1008.1
20260506120237 63 122 0.9 0.9 0.00 0.00 0.00 84 1007.9
20260506115735 63 334 0.9 0.9 0.00 0.00 0.00 85 1007.9
20260506115233 62 169 2.6 5.2 0.00 0.00 0.00 86 1008.1
20260506114730 62 68 0.9 0.9 0.00 0.00 0.00 85 1007.9
20260506114227 62 101 1.7 1.7 0.00 0.00 0.00 87 1007.9
20260506113726 62 213 2.6 2.6 0.00 0.00 0.00 85 1007.9
20260506113223 62 39 0.0 0.9 0.00 0.00 0.00 86 1007.7
20260506112719 63 52 0.9 0.9 0.00 0.00 0.00 85 1007.7
20260506112217 63 216 0.0 0.9 0.00 0.00 0.00 83 1007.8
20260506111714 63 183 0.0 0.0 0.00 0.00 0.00 82 1008.1
20260506111213 64 205 0.9 2.6 0.00 0.00 0.00 81 1008.0
20260506110709 64 218 2.6 5.2 0.00 0.00 0.00 80 1007.9
20260506110207 64 215 1.7 1.7 0.00 0.00 0.00 79 1007.8
20260506105703 64 240 0.9 0.9 0.00 0.00 0.00 79 1007.7
20260506105200 64 141 0.0 0.0 0.00 0.00 0.00 79 1007.6
20260506104658 64 153 1.7 1.7 0.00 0.00 0.00 77 1007.6
20260506104155 64 240 1.7 2.6 0.00 0.00 0.00 77 1007.4
20260506103652 64 280 0.9 1.7 0.00 0.00 0.00 77 1007.6
20260506103149 64 344 0.0 0.9 0.00 0.00 0.00 78 1007.6
20260506102647 64 184 0.9 0.9 0.00 0.00 0.00 77 1007.2
20260506102144 64 173 0.0 0.0 0.00 0.00 0.00 76 1007.4
20260506101641 64 16 1.7 1.7 0.00 0.00 0.00 76 1007.2
20260506101138 64 247 0.9 1.7 0.00 0.00 0.00 76 1007.2
20260506100637 64 324 0.0 0.9 0.00 0.00 0.00 76 1007.4
20260506100134 64 210 0.0 0.0 0.00 0.00 0.00 75 1007.2
20260506095633 64 2 1.7 1.7 0.00 0.00 0.00 76 1007.3
20260506095129 64 0 0.0 0.9 0.00 0.00 0.00 75 1007.4
20260506094626 64 45 0.9 0.9 0.00 0.00 0.00 74 1007.4
20260506094124 64 268 0.0 0.0 0.00 0.00 0.00 74 1007.6
20260506093622 64 79 0.0 0.0 0.00 0.00 0.00 75 1007.6
20260506093119 64 120 0.9 0.9 0.00 0.00 0.00 75 1007.5
20260506092617 64 209 0.0 0.0 0.00 0.00 0.00 75 1007.7
20260506092114 64 208 0.9 0.9 0.00 0.00 0.00 73 1007.4
20260506091612 64 91 0.0 0.0 0.00 0.00 0.00 74 1007.3
20260506091109 64 143 0.0 0.0 0.00 0.00 0.00 73 1007.7
20260506090607 64 195 0.9 0.9 0.00 0.00 0.00 73 1007.6
20260506085600 64 356 0.0 0.0 0.00 0.00 0.00 72 1007.6
20260506085056 65 352 0.9 0.9 0.00 0.00 0.00 71 1007.7
20260506084553 65 354 0.9 0.9 0.00 0.00 0.00 70 1007.6
20260506084050 65 206 2.6 2.6 0.00 0.00 0.00 70 1007.6
20260506083547 65 238 1.7 1.7 0.00 0.00 0.00 70 1007.7
20260506083044 64 24 0.9 0.9 0.00 0.00 0.00 69 1007.7
20260506082541 64 174 1.7 1.7 0.00 0.00 0.00 70 1007.6
20260506082036 64 204 0.9 0.9 0.00 0.00 0.00 72 1007.6
20260506081535 64 122 0.0 0.0 0.00 0.00 0.00 70 1007.6
20260506081032 64 178 0.9 1.7 0.00 0.00 0.00 71 1007.6
20260506080530 64 119 0.0 0.0 0.00 0.00 0.00 70 1007.5
20260506073513 62 108 0.0 0.0 0.00 0.00 0.00 73 1007.6
20260506073010 62 106 0.0 0.0 0.00 0.00 0.00 73 1007.9
20260506072507 63 106 0.0 0.0 0.00 0.00 0.00 72 1007.7
20260506072005 63 172 0.0 0.0 0.00 0.00 0.00 70 1007.8
20260506071503 63 177 0.0 0.0 0.00 0.00 0.00 71 1007.8
20260506070959 63 173 0.0 0.0 0.00 0.00 0.00 68 1007.9
20260506070456 63 177 0.0 0.0 0.00 0.00 0.00 69 1008.0
20260506062434 66 126 0.9 0.9 0.00 0.00 0.00 63 1008.4
20260506061930 66 165 0.9 0.9 0.00 0.00 0.00 62 1008.1
20260506061426 66 112 0.0 0.0 0.00 0.00 0.00 62 1008.4
20260506060925 66 75 0.9 1.7 0.00 0.00 0.00 62 1008.3
20260506060422 66 28 0.0 0.0 0.00 0.00 0.00 61 1008.3
20260506051354 68 332 2.6 2.6 0.00 0.00 0.00 58 1008.9
20260506050851 68 304 1.7 1.7 0.00 0.00 0.00 57 1008.7
20260506050349 68 348 2.6 2.6 0.00 0.00 0.00 57 1008.8
20260506044839 68 323 0.9 0.9 0.00 0.00 0.00 56 1008.7
20260506044337 69 202 3.5 4.3 0.00 0.00 0.00 55 1008.7
20260506043834 69 208 2.6 4.3 0.00 0.00 0.00 54 1008.7
20260506043331 69 173 0.9 0.9 0.00 0.00 0.00 54 1008.7
20260506042829 69 92 0.0 0.9 0.00 0.00 0.00 54 1008.8
20260506042328 69 244 0.9 0.9 0.00 0.00 0.00 53 1008.7
20260506041827 69 221 4.3 7.0 0.00 0.00 0.00 53 1008.8
20260506041323 69 269 1.7 1.7 0.00 0.00 0.00 53 1008.8
20260506040820 69 34 1.7 1.7 0.00 0.00 0.00 53 1008.7
20260506040318 70 103 0.9 0.9 0.00 0.00 0.00 52 1008.5
20260506035814 69 153 0.0 0.0 0.00 0.06 0.06 52 1009.0
20260506035311 69 75 1.7 1.7 0.00 0.06 0.06 53 1008.8
20260506034809 69 320 0.9 0.9 0.00 0.06 0.06 54 1008.7
20260506034306 69 197 1.7 1.7 0.00 0.06 0.06 53 1008.7
20260506033802 70 15 2.6 2.6 0.00 0.06 0.06 52 1008.5
20260506033259 69 277 0.9 0.9 0.00 0.06 0.06 52 1008.7
20260506032756 69 221 1.7 2.6 0.00 0.06 0.06 51 1008.3
20260506032253 69 78 0.9 1.7 0.00 0.06 0.06 53 1008.8
20260506031750 69 83 0.9 0.9 0.00 0.06 0.06 53 1008.7
20260506031247 69 97 1.7 1.7 0.00 0.06 0.06 53 1009.0
20260506030745 68 163 1.7 1.7 0.00 0.06 0.06 53 1008.5
20260506030243 69 331 0.0 0.0 0.00 0.06 0.06 54 1008.9
20260506025739 69 258 1.7 2.6 0.00 0.06 0.06 53 1008.8
20260506025236 69 274 0.0 0.0 0.00 0.06 0.06 53 1008.7
20260506024733 70 335 0.9 1.7 0.00 0.06 0.06 52 1008.5
20260506024229 70 2 0.0 0.0 0.00 0.06 0.06 52 1008.8
20260506023726 70 148 1.7 1.7 0.00 0.06 0.06 51 1008.8
20260506023223 70 239 0.9 2.6 0.00 0.06 0.06 50 1009.0
20260506022719 71 166 1.7 2.6 0.00 0.06 0.06 50 1008.9
20260506022218 71 23 0.9 1.7 0.00 0.06 0.06 49 1008.8
20260506021715 71 156 0.9 0.9 0.00 0.06 0.06 48 1008.8
20260506021212 71 30 0.9 0.9 0.00 0.06 0.06 49 1008.8
20260506020709 71 198 3.5 5.2 0.00 0.06 0.06 48 1008.8
20260506020207 72 193 2.6 4.3 0.00 0.06 0.06 47 1008.8
20260506015704 72 81 0.9 1.7 0.00 0.06 0.06 47 1008.8
20260506015201 72 201 0.9 1.7 0.00 0.06 0.06 47 1008.7
20260506014658 72 142 2.6 2.6 0.00 0.06 0.06 46 1008.8
20260506014154 72 115 0.9 0.9 0.00 0.06 0.06 47 1008.3
20260506013652 72 349 0.9 0.9 0.00 0.06 0.06 47 1008.3
20260506013149 73 84 0.0 0.9 0.00 0.06 0.06 46 1008.5
20260506012645 73 315 0.9 0.9 0.00 0.06 0.06 46 1008.3
20260506012142 73 350 1.7 1.7 0.00 0.06 0.06 46 1008.5
20260506011639 73 199 0.9 1.7 0.00 0.06 0.06 47 1008.1
20260506011135 73 13 0.9 0.9 0.00 0.06 0.06 46 1008.3
20260506010634 74 81 1.7 1.7 0.00 0.06 0.06 47 1008.0
20260506010131 73 80 0.9 0.9 0.00 0.06 0.06 46 1007.9
20260506005628 73 48 1.7 1.7 0.00 0.06 0.06 48 1007.9
20260506005124 74 61 0.0 0.0 0.00 0.06 0.06 48 1007.9
20260506004621 74 195 2.6 2.6 0.00 0.06 0.06 47 1007.9
20260506004118 74 155 0.0 0.0 0.00 0.06 0.06 47 1007.7
20260506003614 74 355 1.7 2.6 0.00 0.06 0.06 47 1007.9
20260506003111 74 329 0.9 1.7 0.00 0.06 0.06 47 1007.9
20260506002607 74 184 0.0 0.0 0.00 0.06 0.06 47 1007.8
20260506002103 75 181 0.9 0.9 0.00 0.06 0.06 46 1007.9
20260506001559 74 44 0.9 0.9 0.00 0.06 0.06 47 1007.8
20260506001056 75 173 0.0 0.0 0.00 0.06 0.06 47 1007.8
20260506000554 75 143 3.5 5.2 0.00 0.06 0.06 47 1007.5